N0ZO-13 Weather Reports


time (UTC)temp
F
wind
direction
speed
knots
gust
knots
rain 1hr
in
rain 24hr
in
rain mn
in
humidity
%
barometer
mb
20260906111001 77 37 0.9 1.7 0.00 0.00 0.00 8 1007.5
20260906110831 78 30 0.9 0.9 0.00 0.00 0.00 89 1008.5
20260906110001 77 52 0.0 0.9 0.00 0.00 0.00 9 1007.6
20260906105825 78 33 1.7 2.6 0.00 0.00 0.00 90 1008.7
20260906105001 77 51 3.5 3.5 0.00 0.00 0.00 9 1008.0
20260906104819 78 47 0.9 1.7 0.00 0.00 0.00 92 1008.7
20260906104001 77 19 1.7 2.6 0.00 0.00 0.00 9 1007.8
20260906103826 78 15 4.3 6.1 0.00 0.00 0.00 92 1008.8
20260906103001 77 15 1.7 2.6 0.00 0.00 0.00 9 1007.8
20260906102819 78 340 1.7 2.6 0.00 0.00 0.00 91 1008.7
20260906102001 77 285 0.9 1.7 0.00 0.00 0.00 9 1008.0
20260906101828 78 268 0.9 1.7 0.00 0.00 0.00 91 1008.7
20260906101001 77 223 0.9 1.7 0.00 0.00 0.00 9 1007.6
20260906100840 78 223 0.0 0.9 0.00 0.00 0.00 91 1008.2
20260906100002 77 235 1.7 1.7 0.00 0.00 0.00 9 1007.1
20260906095828 78 240 1.7 2.6 0.00 0.00 0.00 91 1007.9
20260906095002 77 240 0.9 1.7 0.00 0.00 0.00 9 1007.2
20260906094822 78 240 0.9 1.7 0.00 0.00 0.00 91 1008.0
20260906094002 77 211 0.0 0.9 0.00 0.00 0.00 9 1007.1
20260906093830 78 215 0.9 0.9 0.00 0.00 0.00 90 1007.9
20260906093002 78 215 0.0 0.9 0.00 0.00 0.00 9 1007.0
20260906092825 78 0.0 0.0 0.00 0.00 0.00 90 1007.5
20260906092002 78 215 0.0 0.9 0.00 0.00 0.00 9 1007.0
20260906091838 78 221 0.9 1.7 0.00 0.00 0.00 90 1007.6
20260906091002 78 192 0.0 0.9 0.00 0.00 0.00 9 1006.8
20260906090827 79 192 0.9 0.9 0.00 0.00 0.00 90 1007.7
20260906090002 78 216 0.9 1.7 0.00 0.00 0.00 9 1007.0
20260906085821 79 209 1.7 2.6 0.00 0.00 0.00 90 1007.8
20260906085001 78 215 0.0 0.9 0.00 0.00 0.00 9 1007.0
20260906084830 79 238 1.7 2.6 0.00 0.00 0.00 90 1007.8
20260906084001 78 251 1.7 3.5 0.00 0.00 0.00 9 1007.2
20260906083822 79 267 0.9 2.6 0.00 0.00 0.00 90 1008.2
20260906083001 78 313 1.7 3.5 0.00 0.00 0.00 9 1007.2
20260906082816 79 1 1.7 3.5 0.00 0.00 0.00 90 1008.1
20260906082001 78 315 0.9 1.7 0.00 0.00 0.00 9 1007.4
20260906081824 79 315 0.9 1.7 0.00 0.00 0.00 90 1008.4
20260906081001 78 280 0.9 1.7 0.00 0.00 0.00 8 1007.3
20260906080839 79 266 0.9 0.9 0.00 0.00 0.00 89 1007.9
20260906080001 78 262 0.9 1.7 0.00 0.00 0.00 9 1007.0
20260906075828 78 275 0.9 1.7 0.00 0.00 0.00 89 1007.7
20260906075001 78 270 1.7 2.6 0.00 0.00 0.00 8 1007.1
20260906074819 78 273 0.9 1.7 0.00 0.00 0.00 89 1007.6
20260906074001 78 289 1.7 2.6 0.00 0.00 0.00 8 1007.0
20260906073828 78 279 2.6 3.5 0.00 0.00 0.00 89 1007.6
20260906073001 78 264 0.9 0.9 0.00 0.00 0.00 8 1007.0
20260906072821 78 248 0.9 1.7 0.00 0.00 0.00 89 1007.7
20260906072001 77 257 1.7 2.6 0.00 0.00 0.00 9 1007.1
20260906071830 78 261 0.9 2.6 0.00 0.00 0.00 90 1007.8
20260906071001 77 266 2.6 3.5 0.00 0.00 0.00 9 1006.9
20260906070844 78 260 1.7 2.6 0.00 0.00 0.00 90 1007.7
20260906070001 77 248 1.7 1.7 0.00 0.00 0.00 9 1006.9
20260906065828 78 248 1.7 1.7 0.00 0.00 0.00 89 1007.8
20260906065001 77 284 0.9 1.7 0.00 0.00 0.00 8 1007.2
20260906064818 78 284 0.9 0.9 0.00 0.00 0.00 89 1008.0
20260906064001 77 284 0.9 1.7 0.00 0.00 0.00 8 1007.3
20260906063821 77 284 1.7 2.6 0.00 0.00 0.00 89 1008.0
20260906063001 77 230 0.9 1.7 0.00 0.00 0.00 8 1007.3
20260906062828 77 200 0.9 0.9 0.00 0.00 0.00 88 1008.0
20260906062002 77 0 0.0 0.0 0.00 0.00 0.00 8 1007.6
20260906061815 78 200 0.0 0.9 0.00 0.00 0.00 88 1008.2
20260906061002 77 0 0.0 0.0 0.00 0.00 0.00 8 1007.5
20260906060821 78 0.0 0.0 0.00 0.00 0.00 87 1008.4
20260906060002 77 200 0.0 0.9 0.00 0.00 0.00 8 1007.9
20260906055824 78 0.0 0.0 0.00 0.00 0.00 87 1008.4
20260906055006 78 200 0.9 0.9 0.00 0.00 0.00 8 1007.7
20260906054829 78 200 0.9 0.9 0.00 0.00 0.00 87 1008.5
20260906054001 78 200 0.0 0.9 0.00 0.00 0.00 8 1007.7
20260906053821 78 200 0.0 0.9 0.00 0.00 0.00 86 1008.5
20260906053001 78 201 0.0 0.9 0.00 0.00 0.00 8 1007.8
20260906052828 79 0.0 0.0 0.00 0.00 0.00 86 1008.4
20260906052001 78 201 0.0 0.9 0.00 0.00 0.00 8 1008.0
20260906051820 79 0.0 0.0 0.00 0.00 0.00 86 1008.8
20260906051001 78 0 0.0 0.0 0.00 0.00 0.00 8 1007.8
20260906050827 79 0.0 0.0 0.00 0.00 0.00 85 1008.6
20260906050001 78 0 0.0 0.0 0.00 0.00 0.00 8 1008.0
20260906045819 79 0.0 0.0 0.00 0.00 0.00 85 1008.6
20260906045001 79 0 0.0 0.0 0.00 0.00 0.00 8 1007.8
20260906044828 79 201 0.0 0.9 0.00 0.00 0.00 85 1008.3
20260906044001 79 0 0.0 0.0 0.00 0.00 0.00 8 1007.7
20260906043820 80 0.0 0.0 0.00 0.00 0.00 84 1008.6
20260906043001 79 0 0.0 0.0 0.00 0.00 0.00 8 1007.7
20260906042829 80 201 0.0 0.9 0.00 0.00 0.00 84 1008.6
20260906042001 80 0 0.0 0.0 0.00 0.00 0.00 8 1007.6
20260906041819 80 201 0.9 0.9 0.00 0.00 0.00 83 1008.7
20260906041001 80 201 0.0 0.9 0.00 0.00 0.00 8 1007.9
20260906040826 80 0.0 0.0 0.00 0.00 0.00 83 1008.5
20260906040001 80 200 0.0 1.7 0.00 0.00 0.00 8 1007.6
20260906035821 81 200 0.9 1.7 0.00 0.00 0.00 82 1008.4
20260906035002 80 200 0.0 0.9 0.00 0.00 0.00 8 1007.7
20260906034827 81 200 0.9 2.6 0.00 0.00 0.00 82 1008.5
20260906034002 80 217 0.0 0.9 0.00 0.00 0.00 8 1007.6
20260906033833 81 237 2.6 3.5 0.00 0.00 0.00 82 1008.6
20260906033002 81 250 1.7 2.6 0.00 0.00 0.00 8 1007.5
20260906032825 81 239 1.7 3.5 0.00 0.00 0.00 82 1008.6
20260906032002 81 245 2.6 3.5 0.00 0.00 0.00 8 1007.6
20260906031830 81 247 2.6 3.5 0.00 0.00 0.00 81 1008.4
20260906031002 81 235 1.7 1.7 0.00 0.00 0.00 8 1007.5
20260906030819 82 226 0.9 1.7 0.00 0.00 0.00 81 1008.6
20260906030002 81 210 0.9 2.6 0.00 0.00 0.00 8 1007.6
20260906025825 82 211 1.7 2.6 0.00 0.00 0.00 80 1008.6
20260906025002 81 238 0.0 0.9 0.00 0.00 0.00 8 1007.6
20260906024817 82 237 0.9 1.7 0.00 0.00 0.00 80 1008.6
20260906024001 81 221 1.7 3.5 0.00 0.00 0.00 8 1007.4
20260906023825 82 248 2.6 3.5 0.00 0.00 0.00 80 1008.3
20260906023001 82 220 0.0 0.9 0.00 0.00 0.00 7 1007.5
20260906022829 82 230 0.9 1.7 0.00 0.00 0.00 80 1008.3
20260906022001 82 247 1.7 2.6 0.00 0.00 0.00 7 1007.3
20260906021820 82 230 0.9 1.7 0.00 0.00 0.00 79 1008.4
20260906021001 82 236 0.9 1.7 0.00 0.00 0.00 7 1007.4
20260906020826 82 240 0.9 1.7 0.00 0.00 0.00 79 1008.5
20260906020001 82 269 1.7 2.6 0.00 0.00 0.00 7 1007.5
20260906015817 82 238 2.6 6.1 0.00 0.00 0.00 79 1008.2
20260906015001 82 250 2.6 2.6 0.00 0.00 0.00 7 1006.9
20260906014823 83 229 1.7 2.6 0.00 0.00 0.00 78 1008.2
20260906014001 82 230 1.7 3.5 0.00 0.00 0.00 7 1006.8
20260906013910 83 218 2.6 5.2 0.00 0.00 0.00 79 1007.9
20260906013001 83 241 0.9 0.9 0.00 0.00 0.00 7 1006.7
20260906012823 83 241 1.7 1.7 0.00 0.00 0.00 78 1007.6
20260906012001 83 219 0.0 1.7 0.00 0.00 0.00 7 1006.3
20260906011828 83 218 0.9 2.6 0.00 0.00 0.00 78 1007.4
20260906011001 83 176 0.9 1.7 0.00 0.00 0.00 7 1006.3
20260906010839 84 203 2.6 3.5 0.00 0.00 0.00 78 1007.3
20260906010001 83 234 2.6 3.5 0.00 0.00 0.00 7 1006.2
20260906005826 84 238 0.9 1.7 0.00 0.00 0.00 78 1006.9
20260906005001 84 228 2.6 3.5 0.00 0.00 0.00 7 1006.0
20260906004816 84 247 3.5 6.1 0.00 0.00 0.00 77 1006.9
20260906004002 84 245 2.6 3.5 0.00 0.00 0.00 7 1006.1
20260906003822 84 239 2.6 5.2 0.00 0.00 0.00 77 1007.1
20260906003002 84 213 0.9 2.6 0.00 0.00 0.00 7 1006.0
20260906002828 85 212 1.7 2.6 0.00 0.00 0.00 76 1007.2
20260906002002 85 226 0.9 2.6 0.00 0.00 0.00 7 1006.0
20260906001821 85 195 2.6 5.2 0.00 0.00 0.00 75 1007.2
20260906001002 85 208 2.6 2.6 0.00 0.00 0.00 7 1006.2
20260906000825 86 221 0.9 1.7 0.00 0.00 0.00 75 1007.0
20260906000002 86 185 0.9 0.9 0.00 0.00 0.00 7 1006.4
20260905235857 86 205 2.6 3.5 0.00 0.00 0.00 74 1007.4
20260905235002 86 169 1.7 2.6 0.00 0.00 0.00 7 1006.4
20260905234823 87 186 2.6 3.5 0.00 0.00 0.00 74 1007.3
20260905234002 87 231 1.7 2.6 0.00 0.00 0.00 7 1006.3
20260905233829 87 214 0.9 2.6 0.00 0.00 0.00 74 1007.4
20260905233002 87 226 2.6 3.5 0.00 0.00 0.00 7 1006.2
20260905232819 88 213 2.6 5.2 0.00 0.00 0.00 72 1007.4
20260905232001 88 210 3.5 5.2 0.00 0.00 0.00 7 1006.1
20260905231846 89 189 5.2 7.8 0.00 0.00 0.00 71 1007.4
20260905231001 89 203 6.1 7.0 0.00 0.00 0.00 7 1006.4
20260905230819 90 230 6.1 12.2 0.00 0.00 0.00 70 1007.2
20260905230001 90 185 0.9 1.7 0.00 0.00 0.00 6 1006.0
20260905225825 91 188 2.6 5.2 0.00 0.00 0.00 69 1007.0
20260905225001 91 261 1.7 3.5 0.00 0.00 0.00 6 1005.8
20260905224910 92 225 6.1 13.9 0.00 0.00 0.00 67 1006.9
20260905224001 92 197 7.8 12.2 0.00 0.00 0.00 6 1006.0
20260905223818 93 242 6.1 9.6 0.00 0.00 0.00 66 1006.9
20260905223001 93 171 4.3 5.2 0.00 0.00 0.00 6 1005.8
20260905222819 93 214 7.0 16.5 0.00 0.00 0.00 65 1006.8
20260905222001 93 178 3.5 4.3 0.00 0.00 0.00 6 1005.6
20260905221825 94 216 5.2 11.3 0.00 0.00 0.00 65 1006.9
20260905221001 94 237 6.1 7.8 0.00 0.00 0.00 6 1005.5
20260905220829 94 205 3.5 7.8 0.00 0.00 0.00 64 1006.9
20260905220001 94 168 1.7 2.6 0.00 0.00 0.00 6 1005.3
20260905215817 95 173 3.5 5.2 0.00 0.00 0.00 64 1006.8
20260905215001 94 230 3.5 4.3 0.00 0.00 0.00 6 1005.4
20260905214845 95 201 3.5 7.0 0.00 0.00 0.00 63 1006.9
20260905214001 95 99 2.6 3.5 0.00 0.00 0.00 6 1005.4
20260905213816 95 133 2.6 3.5 0.00 0.00 0.00 63 1006.9
20260905213001 95 165 0.0 0.9 0.00 0.00 0.00 6 1005.6
20260905212839 96 129 3.5 5.2 0.00 0.00 0.00 63 1007.1
20260905212002 96 118 5.2 7.8 0.00 0.00 0.00 6 1005.6
20260905211824 96 168 1.7 5.2 0.00 0.00 0.00 62 1007.1
20260905211002 96 162 3.5 4.3 0.00 0.00 0.00 6 1006.0
20260905210829 96 157 1.7 2.6 0.00 0.00 0.00 62 1006.9
20260905210002 97 84 0.9 3.5 0.00 0.00 0.00 6 1005.8
20260905205815 97 189 3.5 6.1 0.00 0.00 0.00 61 1007.0
20260905205002 97 164 2.6 3.5 0.00 0.00 0.00 6 1005.8
20260905204820 97 244 2.6 3.5 0.00 0.00 0.00 61 1007.3
20260905204002 96 84 1.7 2.6 0.00 0.00 0.00 6 1005.9
20260905203902 97 218 3.5 5.2 0.00 0.00 0.00 61 1007.1
20260905203002 96 121 5.2 7.8 0.00 0.00 0.00 6 1006.0
20260905202825 96 112 3.5 5.2 0.00 0.00 0.00 62 1007.3
20260905202002 95 238 3.5 5.2 0.00 0.00 0.00 6 1006.2
20260905201827 95 232 5.2 7.8 0.00 0.00 0.00 63 1007.4
20260905201001 94 203 4.3 5.2 0.00 0.00 0.00 6 1006.1
20260905200830 94 216 1.7 2.6 0.00 0.00 0.00 64 1007.4
20260905200001 94 99 3.5 4.3 0.00 0.00 0.00 6 1006.3
20260905195821 95 132 6.1 13.0 0.00 0.00 0.00 62 1007.4
20260905195001 95 110 1.7 2.6 0.00 0.00 0.00 6 1006.4
20260905194824 96 109 1.7 3.5 0.00 0.00 0.00 61 1007.6
20260905194001 96 194 3.5 4.3 0.00 0.00 0.00 6 1006.2
20260905193827 96 115 1.7 5.2 0.00 0.00 0.00 61 1007.4
20260905193001 96 145 0.9 1.7 0.00 0.00 0.00 6 1006.4
20260905192830 96 222 3.5 3.5 0.00 0.00 0.00 62 1007.6
20260905192001 95 107 0.0 0.9 0.00 0.00 0.00 6 1006.4
20260905191820 95 175 1.7 3.5 0.00 0.00 0.00 63 1007.8
20260905191001 95 277 3.5 4.3 0.00 0.00 0.00 6 1006.7
20260905190825 96 172 0.9 3.5 0.00 0.00 0.00 63 1008.1
20260905190001 95 228 5.2 7.0 0.00 0.00 0.00 6 1006.9
20260905185829 95 222 5.2 9.6 0.00 0.00 0.00 65 1008.2
20260905185001 95 245 3.5 4.3 0.00 0.00 0.00 6 1006.9
20260905184837 95 243 6.1 7.8 0.00 0.00 0.00 64 1008.4
20260905184001 95 207 2.6 4.3 0.00 0.00 0.00 6 1007.2
20260905183821 96 231 4.3 7.0 0.00 0.00 0.00 64 1008.6
20260905183001 95 201 3.5 4.3 0.00 0.00 0.00 6 1007.4
20260905182824 96 221 4.3 7.0 0.00 0.00 0.00 64 1008.9
20260905182002 96 235 1.7 3.5 0.00 0.00 0.00 6 1007.4
20260905181910 96 205 4.3 7.0 0.00 0.00 0.00 65 1008.9
20260905181002 95 171 3.5 4.3 0.00 0.00 0.00 6 1007.8
20260905180823 95 192 4.3 7.8 0.00 0.00 0.00 65 1009.0
20260905180002 94 227 3.5 5.2 0.00 0.00 0.00 6 1007.9
20260905175829 94 219 4.3 7.0 0.00 0.00 0.00 67 1009.0
20260905175002 93 255 3.5 7.0 0.00 0.00 0.00 6 1007.8
20260905174823 93 217 3.5 7.0 0.00 0.00 0.00 66 1009.2
20260905174002 93 246 4.3 4.3 0.00 0.00 0.00 6 1008.2
20260905173816 94 225 4.3 7.0 0.00 0.00 0.00 65 1009.3
20260905173002 94 266 2.6 7.0 0.00 0.00 0.00 6 1008.2
20260905172824 95 9 2.6 7.0 0.00 0.00 0.00 62 1009.3
20260905172002 96 187 1.7 2.6 0.00 0.00 0.00 6 1008.3
20260905171836 96 200 2.6 6.1 0.00 0.00 0.00 57 1009.6
20260905171001 96 79 1.7 1.7 0.00 0.00 0.00 5 1008.2
20260905170823 96 79 1.7 5.2 0.00 0.00 0.00 57 1009.4
20260905170001 95 96 1.7 2.6 0.00 0.00 0.00 5 1008.4
20260905165830 96 75 2.6 3.5 0.00 0.00 0.00 56 1009.8
20260905165001 94 0 0.9 1.7 0.00 0.00 0.00 5 1008.7
20260905164821 95 331 2.6 3.5 0.00 0.00 0.00 56 1010.0
20260905164001 94 27 5.2 7.0 0.00 0.00 0.00 5 1008.8
20260905163828 95 31 3.5 5.2 0.00 0.00 0.00 57 1010.1
20260905163001 94 48 4.3 7.0 0.00 0.00 0.00 5 1009.0
20260905162826 95 12 5.2 7.0 0.00 0.00 0.00 57 1009.9
20260905162001 94 43 4.3 7.0 0.00 0.00 0.00 5 1009.2
20260905161843 94 7 1.7 1.7 0.00 0.00 0.00 60 1010.0
20260905161001 94 39 4.3 7.0 0.00 0.00 0.00 5 1009.1
20260905160827 94 54 2.6 5.2 0.00 0.00 0.00 60 1010.1
20260905160001 93 37 3.5 3.5 0.00 0.00 0.00 6 1008.8
20260905155817 94 20 3.5 6.1 0.00 0.00 0.00 62 1010.3
20260905155001 93 283 2.6 3.5 0.00 0.00 0.00 6 1009.1
20260905154835 93 246 2.6 6.1 0.00 0.00 0.00 65 1010.1
20260905154002 92 275 1.7 2.6 0.00 0.00 0.00 6 1008.9
20260905153829 92 352 2.6 3.5 0.00 0.00 0.00 65 1010.1
20260905153001 91 311 6.1 8.7 0.00 0.00 0.00 6 1009.0
20260905152842 91 334 3.5 6.1 0.00 0.00 0.00 67 1010.0
20260905152002 91 33 4.3 8.7 0.00 0.00 0.00 6 1008.9
20260905151815 91 315 4.3 6.1 0.00 0.00 0.00 68 1010.2
20260905151002 91 274 5.2 7.0 0.00 0.00 0.00 6 1009.1
20260905150823 91 314 5.2 7.0 0.00 0.00 0.00 69 1010.1
20260905150002 90 337 3.5 5.2 0.00 0.00 0.00 6 1009.1
20260905145836 90 12 0.9 3.5 0.00 0.00 0.00 69 1010.0
20260905145002 89 312 3.5 4.3 0.00 0.00 0.00 7 1009.0
20260905144824 90 6 2.6 5.2 0.00 0.00 0.00 70 1010.4
20260905144002 89 287 0.9 0.9 0.00 0.00 0.00 7 1009.1
20260905143817 89 305 2.6 6.1 0.00 0.00 0.00 71 1010.2
20260905143001 88 351 3.5 4.3 0.00 0.00 0.00 7 1008.9
20260905142825 88 295 3.5 7.8 0.00 0.00 0.00 73 1010.3
20260905142001 87 344 1.7 2.6 0.00 0.00 0.00 7 1009.3
20260905141819 87 356 2.6 2.6 0.00 0.00 0.00 73 1010.0
20260905141001 86 357 3.5 5.2 0.00 0.00 0.00 7 1009.1
20260905140825 87 15 4.3 7.8 0.00 0.00 0.00 74 1010.1
20260905140001 86 2 1.7 4.3 0.00 0.00 0.00 7 1009.3
20260905135819 86 283 1.7 2.6 0.00 0.00 0.00 77 1010.3
20260905135001 85 337 1.7 1.7 0.00 0.00 0.00 7 1009.5
20260905134827 85 303 2.6 6.1 0.00 0.00 0.00 79 1010.4
20260905134001 84 0 2.6 3.5 0.00 0.00 0.00 7 1009.6
20260905133840 84 308 2.6 3.5 0.00 0.00 0.00 80 1010.3
20260905133001 83 328 0.0 0.9 0.00 0.00 0.00 8 1009.5
20260905132829 83 328 0.9 1.7 0.00 0.00 0.00 82 1010.3
20260905132002 82 301 1.7 3.5 0.00 0.00 0.00 8 1009.2
20260905131903 82 312 2.6 3.5 0.00 0.00 0.00 83 1010.5
20260905131001 81 296 1.7 3.5 0.00 0.00 0.00 8 1009.3
20260905130829 81 297 0.9 1.7 0.00 0.00 0.00 85 1010.4
20260905130001 80 295 1.7 1.7 0.00 0.00 0.00 8 1009.8
20260905125822 80 295 0.9 1.7 0.00 0.00 0.00 87 1010.3
20260905125001 79 295 0.9 1.7 0.00 0.00 0.00 8 1009.5
20260905124815 79 296 1.7 1.7 0.00 0.00 0.00 88 1010.7
20260905124001 78 280 1.7 2.6 0.00 0.00 0.00 8 1009.4
20260905123823 78 281 0.9 1.7 0.00 0.00 0.00 89 1010.3
20260905123001 77 276 2.6 3.5 0.00 0.00 0.00 9 1009.6
20260905122818 77 289 1.7 2.6 0.00 0.00 0.00 91 1010.4
20260905122002 76 272 0.9 1.7 0.00 0.00 0.00 9 1009.9
20260905121845 76 267 0.9 1.7 0.00 0.00 0.00 91 1010.5
20260905121002 75 0 0.0 0.0 0.00 0.00 0.00 9 1009.5
20260905120856 76 0.0 0.0 0.00 0.00 0.00 91 1010.0
20260905120002 75 0 0.0 0.0 0.00 0.00 0.00 9 1009.2
20260905115824 75 0.0 0.0 0.00 0.00 0.00 91 1010.0
20260905115002 75 0 0.0 0.0 0.00 0.00 0.00 9 1009.3
20260905114817 76 252 0.0 0.9 0.00 0.00 0.00 90 1010.1
20260905114002 75 252 0.9 1.7 0.00 0.00 0.00 9 1009.3
20260905113825 76 252 0.9 1.7 0.00 0.00 0.00 91 1010.1
20260905113001 75 252 0.0 0.9 0.00 0.00 0.00 9 1009.3
20260905112819 76 252 0.0 0.9 0.00 0.00 0.00 91 1010.0
20260905112001 75 252 0.0 0.9 0.00 0.00 0.00 9 1009.1
20260905111825 75 252 0.9 0.9 0.00 0.00 0.00 91 1010.0